Location: Bittkow
(50.3000°N, 19.0000°E)
Time: 13:15:22
(UTC+00:00)

Cosmos 1633 Rocket - Pass Details

Date: 19 September 2020
Orbit: 608 x 623 km, 82.5° (Epoch: 22 October)

Event Time Altitude Azimuth Distance (km) Brightness Sun altitude
Rises 01:44:00 0° 346° (NNW) 2,884 6.8 -24.9°
Reaches altitude 10° 01:46:14 10° 343° (NNW) 1,976 5.8 -24.6°
Enters shadow 01:48:57 35° 326° (NW) 988 4.0 -24.3°
